STARLINK-1361, 45567

Orbit data source: Space-Track

STARLINK-1361, 45567 is a payload satellite owned by SpaceX/Seattle (US) in LEO that was launched on Wed, 22 Apr 2020 UTC via an FALCON 9 launch vehicle from the Air Force Eastern Test Range (AFETR). Payload-class satellites include a variety of spacecraft equipped with specific instruments for various scientific and technological missions. These include communications satellites like Starlink; space stations such as the ISS; scientific satellites like the Hubble; Earth observation satellites from companies like Planet Labs, Umbra, and HawkEye 360; GPS; miniature CubeSats for education and research; and military/defense satellites.

Loading next visibility...
Identifier
45567, 2020-025AN
Orbit
LEO
Last TLE update
10 hours ago
Origin
Manufacturer
SpaceX/Seattle
Mission
Operational Commercial Communications
Bus & Motor
STARLINK, Unknown motor
Mass
260 kg wet, ~248 kg dry
Launch date (UTC)
2020-04-22 (5 years ago)
Launch vehicle
FALCON 9
Launch site
Air Force Eastern Test Range (AFETR)
Object type
Payload
Rocket body
Debris
Shape & HBR
Box + 1 Pan, 8.86 m
Radar Cross Section
13.562 m², Large (>1 m²)

Expand to show TLE details & history

TLE from 10 hours ago
0 STARLINK-1361
1 45567U 20025AN  25183.82960239  .00000017  00000-0  20050-4 0  9993
2 45567  53.0547 128.2869 0001382  90.8109 269.3038 15.06392572287716
Epoch: 2025-07-02T19:54Z
TLE epoch observation values (Epoch: 2025-07-02T19:54:37.646Z)
Latitude
-0.00005°
Longitude
-91.47508°
Altitude
548.125 km
Speed
7.589 km/s
True Right ascension
08h 33m 08s
True Declination
0° 00' 00"
Sunlit
Object was in daylight at epoch
Visualization orbit readout
Latitude
20.75252°
Longitude
70.14675°
Altitude
547.295 km
Speed
7.592 km/s
Apparent Right ascension
22h 11m 23s
Apparent Declination
-31° 55' 59"
Sunlit
Object is in full shadow
Visualization observer readout
Local Sidereal Time
17:54:15
Azimuth
130.017° SE
Elevation
-3.265°
Doppler factor
1
Orbital elements
Apogee altitude
548.462 km
Perigee altitude
546.548 km
Semi-major axis
6,925.642 km
Eccentricity
0.00014
Inclination
53.0547°
RAAN
128.2869°
Arg. of periapsis
90.8109°
True anomaly
Unknown
Mean anomaly
269.3038°
Eccentric anomaly
Unknown
Mean motion
3.76576 °/min
Orbital period
95.6 mins
BSTAR
0.00002005
Loading maneuver chart data...
Loading SW <> Apogee altitude chart data...
Loading historical data...
Loading historical data...
Loading historical data...
Loading historical data...
Loading historical data...
Loading historical data...
Loading historical data...

STARLINK-1361 Visibility forecast

Observer location: undefined°, undefined°

Span
Click to sort rows by Start time (UTC) header in descending order
Start Az.
Max El. time (UTC)
Max El. Az.
Max El.
End time (UTC)
End Az.
6 mins2025-07-03 23:10:37.964Z240.213° WSW2025-07-03 23:13:37.964Z342.273° N43.084°2025-07-03 23:16:37.964Z44.661° NE
4 mins2025-07-04 04:13:37.964Z351.619° N2025-07-04 04:15:37.964Z35.271° NE21.59°2025-07-04 04:17:37.964Z70.408° E
6 mins2025-07-04 05:52:37.964Z302.186° NW2025-07-04 05:54:37.964Z264.838° W42.294°2025-07-04 05:58:37.964Z139.4° SSE
|